Search for airport 
image banner adimage banner adimage banner ad
image banner ad

89CA - Swanson Ranch Nr 2 Airport

Located in Riverdale, United States

ICAO - 89CA, IATA -

Data provided by Airmate  

General information

Coordinates: N35°38'40" W120°51'1"
Elevation is 1488 feet MSL.
Magnetic variation is 15° East
View others Airports in California

Operational data

Special qualification required
Current time UTC:
Current local time:
Weather at : KPRB - Paso Robles Muni ( 20 km )
METAR: KPRB 191153Z AUTO 00000KT 10SM CLR 04/01 A3002 RMK AO2 SLP166 T00390006 10100 20022 58006
TAF: KPRB 191135Z 1912/2012 VRB03KT P6SM SKC FM192100 21008KT P6SM SCT250 FM200400 VRB03KT P6SM BKN250
View NOTAMs / SUP AIP / TFR affecting this airport [VIEW]
Communications frequencies: [VIEW]

Runways:

RWY identifierQFULength (ft)Width (ft)SurfaceLDA (ft)
04335325ASPH
22335325ASPH

Airport contact information

Address: Riverdale United States

Satellite view of 89CA